Time,TemperatureF,DewpointF,PressureIn,WindDirection,WindDirectionDegrees,WindSpeedMPH,WindSpeedGustMPH,Humidity,HourlyPrecipIn,Conditions,Clouds,dailyrainin,SoftwareType,DateUTC
2013-01-26 00:06:00,23.0,21.0,30.06,SW,223,6.0,10.0,91,0.00,,,0.00,weatherlink.com 1.10,2013-01-26 05:06:00,
2013-01-26 00:21:00,24.1,22.0,30.06,SW,219,3.0,9.0,90,0.00,,,0.00,weatherlink.com 1.10,2013-01-26 05:21:00,
2013-01-26 00:36:00,25.1,22.0,30.05,SW,218,5.0,8.0,87,0.00,,,0.00,weatherlink.com 1.10,2013-01-26 05:36:00,
2013-01-26 00:52:00,24.7,22.0,30.05,SSW,194,0.0,5.0,90,0.00,,,0.00,weatherlink.com 1.10,2013-01-26 05:52:00,
2013-01-26 01:07:00,22.8,20.0,30.05,NE,37,0.0,1.0,87,0.00,,,0.00,weatherlink.com 1.10,2013-01-26 06:07:00,
2013-01-26 01:22:00,21.4,19.0,30.06,NE,37,0.0,0.0,89,0.00,,,0.00,weatherlink.com 1.10,2013-01-26 06:22:00,
2013-01-26 01:37:00,21.0,19.0,30.06,NE,37,0.0,0.0,90,0.00,,,0.00,weatherlink.com 1.10,2013-01-26 06:37:00,
2013-01-26 01:52:00,21.1,19.0,30.07,NE,53,0.0,0.0,90,0.00,,,0.00,weatherlink.com 1.10,2013-01-26 06:52:00,
2013-01-26 02:07:00,21.5,19.0,30.07,South,186,0.0,2.0,91,0.00,,,0.00,weatherlink.com 1.10,2013-01-26 07:07:00,
2013-01-26 02:22:00,22.2,20.0,30.08,South,188,0.0,0.0,91,0.00,,,0.00,weatherlink.com 1.10,2013-01-26 07:22:00,
2013-01-26 02:37:00,22.5,20.0,30.07,ESE,115,0.0,3.0,91,0.00,,,0.00,weatherlink.com 1.10,2013-01-26 07:37:00,
2013-01-26 02:52:00,22.6,20.0,30.08,ESE,115,0.0,0.0,91,0.00,,,0.00,weatherlink.com 1.10,2013-01-26 07:52:00,
2013-01-26 03:07:00,22.8,21.0,30.09,SW,231,0.0,1.0,91,0.00,,,0.00,weatherlink.com 1.10,2013-01-26 08:07:00,
2013-01-26 03:22:00,24.5,22.0,30.08,SSW,205,0.0,3.0,90,0.00,,,0.00,weatherlink.com 1.10,2013-01-26 08:22:00,
2013-01-26 03:37:00,25.1,22.0,30.09,WSW,245,0.0,4.0,87,0.00,,,0.00,weatherlink.com 1.10,2013-01-26 08:37:00,
2013-01-26 03:52:00,25.1,22.0,30.10,SW,225,2.0,2.0,87,0.00,,,0.00,weatherlink.com 1.10,2013-01-26 08:52:00,
2013-01-26 04:07:00,23.6,20.0,30.10,SW,229,0.0,0.0,87,0.00,,,0.00,weatherlink.com 1.10,2013-01-26 09:07:00,
2013-01-26 04:22:00,22.8,20.0,30.11,SW,228,0.0,0.0,90,0.00,,,0.00,weatherlink.com 1.10,2013-01-26 09:22:00,
2013-01-26 04:37:00,24.3,21.0,30.11,NNE,13,1.0,4.0,86,0.00,,,0.00,weatherlink.com 1.10,2013-01-26 09:37:00,
2013-01-26 04:52:00,25.1,19.0,30.11,ENE,59,5.0,9.0,78,0.00,,,0.00,weatherlink.com 1.10,2013-01-26 09:52:00,
2013-01-26 05:07:00,24.6,19.0,30.12,SW,219,6.0,9.0,79,0.00,,,0.00,weatherlink.com 1.10,2013-01-26 10:07:00,
2013-01-26 05:22:00,24.0,18.0,30.12,SW,219,3.0,13.0,79,0.00,,,0.00,weatherlink.com 1.10,2013-01-26 10:22:00,
2013-01-26 05:37:00,24.3,18.0,30.13,ESE,105,0.0,8.0,78,0.00,,,0.00,weatherlink.com 1.10,2013-01-26 10:37:00,
2013-01-26 05:52:00,24.2,18.0,30.14,ENE,63,0.0,3.0,78,0.00,,,0.00,weatherlink.com 1.10,2013-01-26 10:52:00,
2013-01-26 06:07:00,24.0,19.0,30.15,East,84,0.0,1.0,80,0.00,,,0.00,weatherlink.com 1.10,2013-01-26 11:07:00,
2013-01-26 06:22:00,24.0,18.0,30.15,ESE,122,1.0,4.0,77,0.00,,,0.00,weatherlink.com 1.10,2013-01-26 11:22:00,
2013-01-26 06:37:00,23.9,19.0,30.16,ESE,118,0.0,2.0,80,0.00,,,0.00,weatherlink.com 1.10,2013-01-26 11:37:00,
2013-01-26 06:52:00,23.5,19.0,30.16,ENE,61,0.0,1.0,83,0.00,,,0.00,weatherlink.com 1.10,2013-01-26 11:52:00,
2013-01-26 07:07:00,23.2,19.0,30.17,ENE,62,0.0,0.0,83,0.00,,,0.00,weatherlink.com 1.10,2013-01-26 12:07:00,
2013-01-26 07:22:00,23.3,19.0,30.17,South,182,0.0,1.0,83,0.00,,,0.00,weatherlink.com 1.10,2013-01-26 12:22:00,
2013-01-26 07:37:00,23.6,18.0,30.18,SW,231,1.0,2.0,78,0.00,,,0.00,weatherlink.com 1.10,2013-01-26 12:37:00,
2013-01-26 07:52:00,23.7,18.0,30.18,WSW,238,0.0,1.0,78,0.00,,,0.00,weatherlink.com 1.10,2013-01-26 12:52:00,
2013-01-26 08:07:00,23.9,19.0,30.19,WSW,240,0.0,1.0,80,0.00,,,0.00,weatherlink.com 1.10,2013-01-26 13:07:00,
2013-01-26 08:22:00,24.1,19.0,30.19,WSW,250,1.0,2.0,80,0.00,,,0.00,weatherlink.com 1.10,2013-01-26 13:22:00,
2013-01-26 08:37:00,24.5,19.0,30.20,West,277,0.0,4.0,78,0.00,,,0.00,weatherlink.com 1.10,2013-01-26 13:37:00,
2013-01-26 08:52:00,24.7,19.0,30.20,WNW,298,1.0,2.0,79,0.00,,,0.00,weatherlink.com 1.10,2013-01-26 13:52:00,
2013-01-26 09:07:00,24.5,19.0,30.20,SSW,205,0.0,4.0,80,0.00,,,0.00,weatherlink.com 1.10,2013-01-26 14:07:00,
2013-01-26 09:22:00,24.7,20.0,30.21,NNE,24,0.0,4.0,81,0.00,,,0.00,weatherlink.com 1.10,2013-01-26 14:22:00,
2013-01-26 09:37:00,25.1,20.0,30.22,SW,217,1.0,4.0,81,0.00,,,0.00,weatherlink.com 1.10,2013-01-26 14:37:00,
2013-01-26 09:52:00,25.2,20.0,30.22,NE,41,3.0,5.0,82,0.00,,,0.00,weatherlink.com 1.10,2013-01-26 14:52:00,
2013-01-26 10:08:00,25.2,20.0,30.23,SSW,192,2.0,3.0,82,0.00,,,0.00,weatherlink.com 1.10,2013-01-26 15:08:00,
2013-01-26 10:23:00,24.8,19.0,30.23,SSW,211,4.0,6.0,80,0.00,,,0.00,weatherlink.com 1.10,2013-01-26 15:23:00,
2013-01-26 10:38:00,25.1,19.0,30.23,SW,219,2.0,6.0,79,0.00,,,0.00,weatherlink.com 1.10,2013-01-26 15:38:00,
2013-01-26 10:53:00,25.3,20.0,30.23,SW,220,2.0,7.0,79,0.00,,,0.00,weatherlink.com 1.10,2013-01-26 15:53:00,
2013-01-26 11:08:00,25.6,20.0,30.23,SW,228,0.0,7.0,78,0.00,,,0.00,weatherlink.com 1.10,2013-01-26 16:08:00,
2013-01-26 11:23:00,25.7,20.0,30.23,SW,234,2.0,7.0,78,0.00,,,0.00,weatherlink.com 1.10,2013-01-26 16:23:00,
2013-01-26 11:38:00,26.3,20.0,30.23,WSW,244,2.0,6.0,76,0.00,,,0.00,weatherlink.com 1.10,2013-01-26 16:38:00,
2013-01-26 11:53:00,26.2,20.0,30.22,WSW,242,4.0,6.0,77,0.00,,,0.00,weatherlink.com 1.10,2013-01-26 16:53:00,
2013-01-26 12:08:00,26.7,20.0,30.21,West,271,3.0,8.0,76,0.00,,,0.00,weatherlink.com 1.10,2013-01-26 17:08:00,
2013-01-26 12:23:00,27.0,20.0,30.21,SSW,213,2.0,7.0,74,0.00,,,0.00,weatherlink.com 1.10,2013-01-26 17:23:00,
2013-01-26 12:38:00,27.2,20.0,30.21,WSW,253,0.0,7.0,74,0.00,,,0.00,weatherlink.com 1.10,2013-01-26 17:38:00,
2013-01-26 12:53:00,28.1,20.0,30.20,SW,227,1.0,3.0,72,0.00,,,0.00,weatherlink.com 1.10,2013-01-26 17:53:00,
2013-01-26 13:08:00,28.7,21.0,30.20,South,180,0.0,3.0,72,0.00,,,0.00,weatherlink.com 1.10,2013-01-26 18:08:00,
2013-01-26 13:23:00,29.0,21.0,30.20,WNW,300,0.0,5.0,71,0.00,,,0.00,weatherlink.com 1.10,2013-01-26 18:23:00,
2013-01-26 13:38:00,29.4,20.0,30.20,WSW,247,0.0,3.0,69,0.00,,,0.00,weatherlink.com 1.10,2013-01-26 18:38:00,
2013-01-26 13:53:00,29.9,20.0,30.20,NE,36,0.0,2.0,68,0.00,,,0.00,weatherlink.com 1.10,2013-01-26 18:53:00,
2013-01-26 14:08:00,30.2,20.0,30.20,SW,227,2.0,4.0,67,0.00,,,0.00,weatherlink.com 1.10,2013-01-26 19:08:00,
2013-01-26 14:23:00,30.0,20.0,30.21,East,94,1.0,2.0,67,0.00,,,0.00,weatherlink.com 1.10,2013-01-26 19:23:00,
2013-01-26 14:38:00,30.1,20.0,30.21,East,84,0.0,2.0,66,0.01,,,0.01,weatherlink.com 1.10,2013-01-26 19:38:00,
2013-01-26 14:53:00,30.3,20.0,30.21,SW,220,2.0,5.0,65,0.01,,,0.01,weatherlink.com 1.10,2013-01-26 19:53:00,
2013-01-26 15:08:00,30.5,20.0,30.21,SSW,194,1.0,6.0,65,0.01,,,0.01,weatherlink.com 1.10,2013-01-26 20:08:00,
2013-01-26 15:23:00,30.3,20.0,30.22,NE,55,0.0,4.0,66,0.01,,,0.01,weatherlink.com 1.10,2013-01-26 20:23:00,
2013-01-26 15:38:00,30.6,20.0,30.22,ENE,65,2.0,2.0,66,0.00,,,0.01,weatherlink.com 1.10,2013-01-26 20:38:00,
2013-01-26 15:53:00,30.7,21.0,30.23,SSW,201,3.0,6.0,66,0.01,,,0.02,weatherlink.com 1.10,2013-01-26 20:53:00,
2013-01-26 16:08:00,32.1,20.0,30.23,North,355,0.0,3.0,62,0.01,,,0.02,weatherlink.com 1.10,2013-01-26 21:08:00,
2013-01-26 16:23:00,30.3,20.0,30.24,South,180,0.0,4.0,66,0.02,,,0.03,weatherlink.com 1.10,2013-01-26 21:23:00,
2013-01-26 16:38:00,29.5,20.0,30.24,NNW,339,1.0,5.0,68,0.02,,,0.03,weatherlink.com 1.10,2013-01-26 21:38:00,
2013-01-26 16:53:00,28.6,20.0,30.25,NNE,23,2.0,11.0,71,0.01,,,0.03,weatherlink.com 1.10,2013-01-26 21:53:00,
2013-01-26 17:08:00,28.2,20.0,30.26,ENE,74,3.0,8.0,72,0.01,,,0.03,weatherlink.com 1.10,2013-01-26 22:08:00,
2013-01-26 17:23:00,27.9,20.0,30.27,NE,35,3.0,8.0,71,0.00,,,0.03,weatherlink.com 1.10,2013-01-26 22:23:00,
2013-01-26 17:38:00,27.4,19.0,30.27,ESE,110,0.0,7.0,72,0.00,,,0.03,weatherlink.com 1.10,2013-01-26 22:38:00,
2013-01-26 17:53:00,27.0,18.0,30.28,NE,42,2.0,7.0,70,0.00,,,0.03,weatherlink.com 1.10,2013-01-26 22:53:00,
2013-01-26 18:08:00,26.6,18.0,30.29,NW,322,0.0,5.0,69,0.00,,,0.03,weatherlink.com 1.10,2013-01-26 23:08:00,
2013-01-26 18:23:00,26.4,17.0,30.30,ESE,114,2.0,3.0,68,0.00,,,0.03,weatherlink.com 1.10,2013-01-26 23:23:00,
2013-01-26 18:38:00,26.1,16.0,30.30,NNE,14,0.0,8.0,67,0.00,,,0.03,weatherlink.com 1.10,2013-01-26 23:38:00,
2013-01-26 18:53:00,25.6,16.0,30.31,NNW,342,1.0,3.0,68,0.00,,,0.03,weatherlink.com 1.10,2013-01-26 23:53:00,
2013-01-26 19:08:00,25.8,16.0,30.31,NE,40,6.0,7.0,67,0.00,,,0.03,weatherlink.com 1.10,2013-01-27 00:08:00,
2013-01-26 19:23:00,25.6,16.0,30.31,North,350,4.0,7.0,67,0.00,,,0.03,weatherlink.com 1.10,2013-01-27 00:23:00,
2013-01-26 19:38:00,25.7,16.0,30.32,NW,324,1.0,7.0,66,0.00,,,0.03,weatherlink.com 1.10,2013-01-27 00:38:00,
2013-01-26 19:53:00,25.6,15.0,30.32,ENE,61,2.0,10.0,65,0.00,,,0.03,weatherlink.com 1.10,2013-01-27 00:53:00,
2013-01-26 20:08:00,25.4,15.0,30.33,SSE,155,3.0,7.0,66,0.00,,,0.03,weatherlink.com 1.10,2013-01-27 01:08:00,
2013-01-26 20:24:00,25.4,15.0,30.34,SSW,202,3.0,10.0,66,0.00,,,0.03,weatherlink.com 1.10,2013-01-27 01:24:00,
2013-01-26 20:39:00,25.3,15.0,30.34,NW,316,1.0,7.0,66,0.00,,,0.03,weatherlink.com 1.10,2013-01-27 01:39:00,
2013-01-26 20:54:00,25.0,15.0,30.35,NE,36,2.0,6.0,67,0.00,,,0.03,weatherlink.com 1.10,2013-01-27 01:54:00,
2013-01-26 21:09:00,24.8,15.0,30.36,NNW,344,3.0,8.0,67,0.00,,,0.03,weatherlink.com 1.10,2013-01-27 02:09:00,
2013-01-26 21:24:00,24.8,16.0,30.37,WSW,238,2.0,5.0,68,0.00,,,0.03,weatherlink.com 1.10,2013-01-27 02:24:00,
2013-01-26 21:39:00,25.0,15.0,30.37,WSW,251,2.0,8.0,67,0.00,,,0.03,weatherlink.com 1.10,2013-01-27 02:39:00,
2013-01-26 21:54:00,24.6,15.0,30.39,NNE,29,4.0,6.0,68,0.00,,,0.03,weatherlink.com 1.10,2013-01-27 02:54:00,
2013-01-26 22:09:00,24.8,16.0,30.39,NNE,19,4.0,7.0,69,0.00,,,0.03,weatherlink.com 1.10,2013-01-27 03:09:00,
2013-01-26 22:24:00,24.8,16.0,30.39,South,176,3.0,6.0,70,0.00,,,0.03,weatherlink.com 1.10,2013-01-27 03:24:00,
2013-01-26 22:39:00,24.8,16.0,30.39,ESE,111,1.0,5.0,69,0.00,,,0.03,weatherlink.com 1.10,2013-01-27 03:39:00,
2013-01-26 22:54:00,24.7,16.0,30.41,NE,42,1.0,4.0,69,0.00,,,0.03,weatherlink.com 1.10,2013-01-27 03:54:00,
2013-01-26 23:09:00,24.7,16.0,30.42,SSE,166,1.0,7.0,69,0.00,,,0.03,weatherlink.com 1.10,2013-01-27 04:09:00,
2013-01-26 23:24:00,24.6,16.0,30.42,NW,324,1.0,5.0,70,0.00,,,0.03,weatherlink.com 1.10,2013-01-27 04:24:00,
2013-01-26 23:39:00,24.4,16.0,30.42,SSE,166,1.0,4.0,69,0.00,,,0.03,weatherlink.com 1.10,2013-01-27 04:39:00,
2013-01-26 23:54:00,24.0,16.0,30.42,NNW,329,1.0,7.0,70,0.00,,,0.03,weatherlink.com 1.10,2013-01-27 04:54:00,